Weather History for KDVK - September, 2013

Change the Weather History Date:

Wednesday, September 18, 2013

  Actual Average (KLEX) Record (KLEX)
Temperature  
Mean Temperature 64 °F 67 °F  
Max Temperature 71 °F 78 °F 96 °F (1953)
Min Temperature 57 °F 57 °F 39 °F (1937)
Degree Days  
Heating Degree Days 1 2  
Month to date heating degree days 12  
Since 1 July heating degree days 14  
Cooling Degree Days 0 4  
Month to date cooling degree days 110  
Year to date cooling degree days 1127  
Growing Degree Days 14 (Base 50)    
Moisture  
Dew Point 62 °F    
Average Humidity 90    
Maximum Humidity 100    
Minimum Humidity 73    
Precipitation  
Precipitation 0.00 in 0.09 in 1.10 in (1875)
Month to date precipitation 1.75  
Year to date precipitation 33.42  
Snow  
Snow 0.00 in 0.00 in - ()
Month to date snowfall 0.0  
Since 1 July snowfall 0.0  
Since 1 September snowfall 0.0  
Snow Depth -    
Sea Level Pressure  
Sea Level Pressure 30.17 in    
Wind  
Wind Speed 2 mph (SSW)    
Max Wind Speed 9 mph    
Max Gust Speed -    
Visibility 10 miles    
Events Rain    
T = Trace of Precipitation, MM = Missing Value Source: NWS Daily Summary

Daily Weather History Graph

Daily Weather History Graph

Search for Another Location

Airport or City:

Trip Planner

Search our weather history database for the weather conditions in past years. The results will help you decide how hot, cold, wet, or windy it might be!

Date:

Astronomy

Sep. 18, 2013 Rise Set
Actual Time 7:23 AM EDT 7:41 PM EDT
Civil Twilight 6:57 AM EDT 8:07 PM EDT
Nautical Twilight 6:26 AM EDT 8:38 PM EDT
Astronomical Twilight 5:55 AM EDT 9:09 PM EDT
Moon 7:04 PM EDT (9/18) 6:25 AM EDT (9/18)
Length of Visible Light 13h 10m
Length of Day
12h 18m
Waxing Gibbous, 99% of the Moon is Illuminated
Sep 18
Waxing Gibbous
Sep 19
Full
Sep 26
Last Quarter
Oct 4
New
Oct 11
First Quarter

Hourly Weather History & Observations

Time (EDT) Temp. Dew Point Humidity Pressure Visibility Wind Dir Wind Speed Gust Speed Precip Events Conditions
12:15 AM 59.0 °F 57.2 °F 94% 30.18 in 10.0 mi Calm Calm - N/A   Scattered Clouds
12:35 AM 59.0 °F 57.2 °F 94% 30.17 in 10.0 mi Calm Calm - N/A   Mostly Cloudy
12:55 AM 59.0 °F 55.4 °F 88% 30.17 in 10.0 mi Calm Calm - N/A   Scattered Clouds
1:15 AM 59.0 °F 57.2 °F 94% 30.17 in 10.0 mi Calm Calm - N/A   Scattered Clouds
1:35 AM 57.2 °F 55.4 °F 94% 30.17 in 10.0 mi Calm Calm - N/A   Scattered Clouds
1:55 AM 59.0 °F 57.2 °F 94% 30.17 in 10.0 mi Calm Calm - N/A   Scattered Clouds
2:15 AM 59.0 °F 57.2 °F 94% 30.16 in 10.0 mi Calm Calm - N/A   Scattered Clouds
2:35 AM 59.0 °F 57.2 °F 94% 30.16 in 10.0 mi Calm Calm - N/A   Clear
2:55 AM 59.0 °F 57.2 °F 94% 30.16 in 10.0 mi Calm Calm - N/A   Mostly Cloudy
3:15 AM 59.0 °F 57.2 °F 94% 30.16 in 10.0 mi Calm Calm - N/A   Scattered Clouds
3:35 AM 59.0 °F 57.2 °F 94% 30.15 in 10.0 mi Calm Calm - N/A   Scattered Clouds
3:55 AM 59.0 °F 59.0 °F 100% 30.15 in 10.0 mi Calm Calm - N/A   Scattered Clouds
4:15 AM 60.8 °F 59.0 °F 94% 30.15 in 10.0 mi Calm Calm - N/A   Mostly Cloudy
4:35 AM 60.8 °F 59.0 °F 94% 30.15 in 10.0 mi Calm Calm - N/A   Mostly Cloudy
4:55 AM 60.8 °F 59.0 °F 94% 30.15 in 10.0 mi Calm Calm - N/A   Scattered Clouds
5:15 AM 60.8 °F 60.8 °F 100% 30.15 in 10.0 mi SW 3.5 mph - N/A   Mostly Cloudy
5:35 AM 62.6 °F 60.8 °F 94% 30.16 in 10.0 mi SSW 3.5 mph - N/A   Overcast
5:55 AM 62.6 °F 60.8 °F 94% 30.16 in 10.0 mi SW 3.5 mph - N/A   Overcast
6:15 AM 62.6 °F 60.8 °F 94% 30.16 in 10.0 mi SSW 5.8 mph - N/A   Overcast
6:35 AM 64.4 °F 62.6 °F 94% 30.17 in 10.0 mi SSW 3.5 mph - N/A   Light Drizzle
6:55 AM 64.4 °F 62.6 °F 94% 30.17 in 10.0 mi SW 3.5 mph - N/A   Overcast
7:15 AM 64.4 °F 62.6 °F 94% 30.18 in 10.0 mi SW 3.5 mph - N/A   Overcast
7:35 AM 64.4 °F 62.6 °F 94% 30.18 in 10.0 mi SW 3.5 mph - N/A   Overcast
7:55 AM 64.4 °F 62.6 °F 94% 30.19 in 10.0 mi Calm Calm - N/A   Overcast
8:15 AM 64.4 °F 62.6 °F 94% 30.19 in 10.0 mi Calm Calm - N/A   Overcast
8:35 AM 64.4 °F 60.8 °F 88% 30.19 in 10.0 mi Calm Calm - N/A   Overcast
8:55 AM 62.6 °F 62.6 °F 100% 30.19 in 7.0 mi Calm Calm - N/A Rain Light Rain
9:15 AM 64.4 °F 62.6 °F 94% 30.20 in 10.0 mi Calm Calm - N/A   Overcast
9:35 AM 64.4 °F 62.6 °F 94% 30.20 in 10.0 mi Calm Calm - N/A   Overcast
9:55 AM 64.4 °F 62.6 °F 94% 30.21 in 10.0 mi Calm Calm - N/A Rain Light Rain
10:15 AM 64.4 °F 62.6 °F 94% 30.22 in 10.0 mi Calm Calm - N/A   Overcast
10:35 AM 64.4 °F 62.6 °F 94% 30.22 in 7.0 mi SW 3.5 mph - N/A Rain Rain
10:55 AM 64.4 °F 62.6 °F 94% 30.21 in 10.0 mi SW 5.8 mph - N/A   Overcast
11:15 AM 64.4 °F 62.6 °F 94% 30.21 in 10.0 mi SSW 3.5 mph - N/A   Overcast
11:35 AM 66.2 °F 62.6 °F 88% 30.21 in 10.0 mi SW 5.8 mph - N/A   Overcast
11:55 AM 66.2 °F 60.8 °F 83% 30.21 in 7.0 mi WSW 3.5 mph - N/A Rain Rain
12:15 PM 64.4 °F 62.6 °F 94% 30.21 in 10.0 mi Calm Calm - N/A   Overcast
12:35 PM 64.4 °F 62.6 °F 94% 30.21 in 10.0 mi Calm Calm - N/A   Overcast
12:55 PM 68.0 °F 62.6 °F 83% 30.21 in 10.0 mi SW 6.9 mph - N/A   Overcast
1:15 PM 68.0 °F 60.8 °F 78% 30.20 in 10.0 mi SW 6.9 mph - N/A   Overcast
1:35 PM 68.0 °F 62.6 °F 83% 30.19 in 10.0 mi SW 6.9 mph - N/A   Overcast
1:55 PM 69.8 °F 62.6 °F 78% 30.19 in 10.0 mi SW 8.1 mph - N/A   Overcast
2:15 PM 69.8 °F 62.6 °F 78% 30.18 in 10.0 mi SW 5.8 mph - N/A   Overcast
2:35 PM 69.8 °F 62.6 °F 78% 30.17 in 10.0 mi SW 6.9 mph - N/A   Overcast
2:55 PM 69.8 °F 62.6 °F 78% 30.17 in 10.0 mi SW 9.2 mph - N/A   Overcast
3:15 PM 71.6 °F 62.6 °F 73% 30.16 in 10.0 mi SW 6.9 mph - N/A   Overcast
3:35 PM 71.6 °F 62.6 °F 73% 30.15 in 10.0 mi SSW 5.8 mph - N/A   Overcast
3:55 PM 71.6 °F 64.4 °F 78% 30.15 in 10.0 mi SSW 8.1 mph - N/A   Overcast
4:15 PM 71.6 °F 64.4 °F 78% 30.15 in 10.0 mi SW 5.8 mph - N/A   Overcast
4:35 PM 71.6 °F 64.4 °F 78% 30.15 in 10.0 mi SSW 6.9 mph - N/A   Overcast
4:55 PM 71.6 °F 64.4 °F 78% 30.14 in 10.0 mi South 5.8 mph - N/A   Overcast
5:15 PM 71.6 °F 64.4 °F 78% 30.14 in 10.0 mi SSW 5.8 mph - N/A   Overcast
5:35 PM 69.8 °F 64.4 °F 83% 30.14 in 10.0 mi SSW 4.6 mph - N/A   Overcast
5:55 PM 69.8 °F 64.4 °F 83% 30.13 in 10.0 mi SSW 5.8 mph - N/A   Overcast
6:15 PM 69.8 °F 64.4 °F 83% 30.13 in 10.0 mi Calm Calm - N/A   Overcast
6:35 PM 69.8 °F 64.4 °F 83% 30.14 in 10.0 mi Calm Calm - N/A   Overcast
6:55 PM 69.8 °F 64.4 °F 83% 30.14 in 10.0 mi Calm Calm - N/A   Overcast
7:15 PM 69.8 °F 64.4 °F 83% 30.14 in 10.0 mi Calm Calm - N/A   Overcast
7:35 PM 68.0 °F 64.4 °F 88% 30.14 in 10.0 mi South 3.5 mph - N/A   Overcast
7:55 PM 68.0 °F 64.4 °F 88% 30.14 in 10.0 mi South 3.5 mph - N/A   Overcast
8:15 PM 68.0 °F 64.4 °F 88% 30.14 in 10.0 mi Calm Calm - N/A   Overcast
8:35 PM 68.0 °F 64.4 °F 88% 30.14 in 10.0 mi Calm Calm - N/A   Overcast
8:55 PM 68.0 °F 64.4 °F 88% 30.14 in 10.0 mi SSE 3.5 mph - N/A   Mostly Cloudy
9:15 PM 66.2 °F 64.4 °F 94% 30.15 in 10.0 mi South 3.5 mph - N/A   Scattered Clouds
9:35 PM 66.2 °F 64.4 °F 94% 30.15 in 10.0 mi Calm Calm - N/A   Mostly Cloudy
9:55 PM 64.4 °F 64.4 °F 100% 30.16 in 10.0 mi South 4.6 mph - N/A   Overcast
10:15 PM 64.4 °F 64.4 °F 100% 30.15 in 10.0 mi South 3.5 mph - N/A   Overcast
10:35 PM 64.4 °F 62.6 °F 94% 30.16 in 10.0 mi Calm Calm - N/A   Overcast
10:55 PM 64.4 °F 64.4 °F 100% 30.15 in 10.0 mi South 3.5 mph - N/A   Overcast
11:15 PM 64.4 °F 62.6 °F 94% 30.15 in 7.0 mi Calm Calm - N/A   Mostly Cloudy
11:35 PM 64.4 °F 62.6 °F 94% 30.15 in 5.0 mi Calm Calm - N/A   Clear
11:55 PM 62.6 °F 62.6 °F 100% 30.15 in 5.0 mi SSW 3.5 mph - N/A   Scattered Clouds